User: anonymous   Login
Location: Myra
(43.4160°N, 88.0960°W)
Time: 14:17:01
(UTC-05:00)
Language:

SL-8 R/B - Orbit

View from above orbital plane
View from above orbital plane
View from above satellite
View from above satellite

Ground track
Ground track

The orbit data is extracted from the following two-line orbital elements,

1 33066U 08031G   16125.15462005  .00000058  00000-0  42549-4 0  9999
2 33066  48.4436 223.4749 0007982 191.4721 240.5920 14.69420851422607
Epoch (UTC): 04 May 2016 03:42:39
Eccentricity: 0.0007982
inclination: 48.4436°
perigee height: 657 km
apogee height: 668 km
right ascension of ascending node: 223.4749°
argument of perigee: 191.4721°
revolutions per day: 14.69420851
mean anomaly at epoch: 240.5920°
orbit number at epoch: 42260

The dashed part of the orbit path shows where the satellite is in the earth's shadow,  

DLR